This is the latest recevied weather packets stored in our database for station/object NC4M. If no packets are shown the sender has not sent any weather packets the latest 10 day(s).
| Time | Temp. | Humidity | Pressure | Rain* | Wind** | Luminosity | Snow |
|---|---|---|---|---|---|---|---|
| 1788535887 | 31.67° C | 59% | 1017.7 hPa | 0 mm | - | 95 W/m² | - |
| 1788535583 | 31.67° C | 58% | 1017.7 hPa | 0 mm | - | 227 W/m² | - |
| 1788535279 | 31.11° C | 58% | 1017.7 hPa | 0 mm | - | 154 W/m² | - |
| 1788534979 | 31.11° C | 58% | 1017.4 hPa | 0 mm | - | 72 W/m² | - |
| 1788534677 | 31.11° C | 61% | 1017.5 hPa | 0 mm | - | 51 W/m² | - |
| 1788534373 | 31.11° C | 62% | 1017.6 hPa | 0 mm | - | 136 W/m² | - |
| 1788534068 | 30.56° C | 64% | 1017.3 hPa | 0 mm | - | 140 W/m² | - |
| 1788533767 | 30.56° C | 64% | 1017.3 hPa | 0 mm | - | 46 W/m² | - |
| 1788533462 | 30° C | 63% | 1017.5 hPa | 0 mm | - | 176 W/m² | - |
| 1788533158 | 30° C | 67% | 1017.3 hPa | 0 mm | - | 56 W/m² | - |
| 1788532854 | 29.44° C | 64% | 1017.5 hPa | 0 mm | - | 45 W/m² | - |
| 1788532549 | 29.44° C | 66% | 1017.3 hPa | 0 mm | - | 63 W/m² | - |
| 1788532246 | 29.44° C | 66% | 1017.1 hPa | 0 mm | - | 43 W/m² | - |
| 1788531942 | 29.44° C | 66% | 1017.4 hPa | 0 mm | - | 43 W/m² | - |
| 1788531638 | 28.89° C | 67% | 1017.4 hPa | 0 mm | - | 42 W/m² | - |
| 1788531338 | 28.89° C | 70% | 1017.4 hPa | 0 mm | - | 41 W/m² | - |
| 1788531033 | 28.89° C | 68% | 1017.4 hPa | 0 mm | - | 40 W/m² | - |
| 1788530733 | 28.33° C | 68% | 1017.4 hPa | 0 mm | - | 40 W/m² | - |
| 1788530428 | 28.33° C | 69% | 1017.4 hPa | 0 mm | - | 51 W/m² | - |
| 1788530127 | 27.78° C | 70% | 1017.3 hPa | 0 mm | - | 106 W/m² | - |
| 1788529824 | 27.78° C | 70% | 1017.4 hPa | 0 mm | - | 53 W/m² | - |
| 1788529519 | 27.22° C | 72% | 1017.4 hPa | 0 mm | - | 39 W/m² | - |
| 1788529213 | 26.67° C | 74% | 1017.4 hPa | 0 mm | - | 38 W/m² | - |
| 1788528908 | 26.67° C | 77% | 1017.4 hPa | 0 mm | - | 44 W/m² | - |
| 1788528604 | 26.11° C | 77% | 1017.1 hPa | 0 mm | - | 35 W/m² | - |
* Rain latest hour (hover to see other rain measurements)
** Current wind speed in m/s (hover to see current wind gust speed)